Location: La Chapelle
(48.3135°N, 1.3085°W)
Time: 20:52:34
(UTC+00:00)

CZ-4 R/B - Pass Details

Date: 03 March 2021
Orbit: 532 x 597 km, 97.7° (Epoch: 14 April)

Event Time Altitude Azimuth Distance (km) Brightness Sun altitude
Rises 19:38:53 0° 203° (SSW) 2,669 5.0 -18.4°
Reaches altitude 10° 19:41:28 10° 222° (SW) 1,789 4.3 -18.8°
Maximum altitude 19:44:14 19° 268° (W) 1,341 4.2 -19.3°
Drops below altitude 10° 19:47:02 10° 314° (NW) 1,817 4.8 -19.7°
Sets 19:49:42 0° 333° (NNW) 2,728 5.5 -20.1°
